Spokane, WA

8:57 AM PDT on July 24, 2017 (GMT -0700)
Spokane International

Weather History for KGEG - December, 2014

Change the Weather History Date:

Monday, December 22, 2014

  Actual Average Record
Temperature  
Mean Temperature 38 °F 26 °F  
Max Temperature 45 °F 31 °F 54 °F (1933)
Min Temperature 30 °F 22 °F -15 °F (1983)
Degree Days  
Heating Degree Days 27 39  
Month to date heating degree days 636 823  
Since 1 July heating degree days 2005 2490  
Cooling Degree Days 0 0  
Month to date cooling degree days 0 0  
Year to date cooling degree days 654 450  
Moisture  
Dew Point 29 °F    
Average Humidity 71    
Maximum Humidity 89    
Minimum Humidity 53    
Precipitation  
Precipitation 0.00 in 0.08 in 1.12 in (1964)
Month to date precipitation 1.48 1.70  
Year to date precipitation 14.50 15.96  
Snow  
Snow 0.00 in 0.60 in 3.80 in (2008)
Month to date snowfall 0.6 9.9  
Since 1 July snowfall 1.1 17.4  
Snow Depth 0.00 in    
Sea Level Pressure  
Sea Level Pressure 30.20 in    
Wind  
Wind Speed 9 mph (SW)    
Max Wind Speed 17 mph    
Max Gust Speed 21 mph    
Visibility 10 miles    
Events      
T = Trace of Precipitation, MM = Missing Value Source: NWS Daily Summary

Daily Weather History Graph

Daily Weather History Graph

Search for Another Location

Airport or City:

Trip Planner

Search our weather history database for the weather conditions in past years. The results will help you decide how hot, cold, wet, or windy it might be!

Date:

Astronomy

Dec. 22, 2014 Rise Set
Actual Time 7:36 AM PST 4:01 PM PST
Civil Twilight 7:00 AM PST 4:37 PM PST
Nautical Twilight 6:20 AM PST 5:17 PM PST
Astronomical Twilight 5:43 AM PST 5:54 PM PST
Moon 7:47 AM PST (12/22) 5:21 PM PST (12/22)
Length of Visible Light 9h 37m
Length of Day
8h 25m
New Moon, 1% of the Moon is Illuminated
Dec 22
New Moon
Dec 28
First Quarter
Jan 4
Full
Jan 13
Last Quarter
Jan 20
New

Hourly Weather History & Observations

Time (PST) Temp. Windchill Dew Point Humidity Pressure Visibility Wind Dir Wind Speed Gust Speed Precip Events Conditions
12:53 AM 37.0 °F 28.9 °F 32.0 °F 82% 29.99 in 10.0 mi WSW 12.7 mph - N/A   Partly Cloudy
1:53 AM 36.0 °F 27.5 °F 30.9 °F 82% 30.02 in 10.0 mi WSW 12.7 mph - N/A   Partly Cloudy
2:53 AM 35.1 °F 25.9 °F 30.0 °F 82% 30.02 in 10.0 mi SW 13.8 mph - N/A   Clear
3:53 AM 33.1 °F 25.5 °F 28.9 °F 85% 30.04 in 10.0 mi SW 9.2 mph - N/A   Clear
4:53 AM 35.1 °F 27.9 °F 28.9 °F 78% 30.05 in 10.0 mi SSW 9.2 mph - N/A   Clear
5:53 AM 33.1 °F 26.9 °F 28.9 °F 85% 30.06 in 10.0 mi SSE 6.9 mph - N/A   Clear
6:53 AM 33.1 °F 24.4 °F 28.9 °F 85% 30.09 in 10.0 mi SW 11.5 mph - N/A   Partly Cloudy
7:53 AM 32.0 °F 23.0 °F 28.9 °F 88% 30.12 in 10.0 mi West 11.5 mph - N/A   Partly Cloudy
8:53 AM 34.0 °F 28.8 °F 30.0 °F 85% 30.15 in 10.0 mi SW 5.8 mph - N/A   Scattered Clouds
9:53 AM 37.4 °F 29.8 °F 30.2 °F 75% 30.14 in 10.0 mi WSW 11.5 mph - N/A   Scattered Clouds
10:53 AM 41.0 °F 33.5 °F 30.0 °F 65% 30.21 in 10.0 mi WSW 13.8 mph - N/A   Scattered Clouds
11:53 AM 42.1 °F 34.9 °F 30.0 °F 62% 30.21 in 10.0 mi WSW 13.8 mph - N/A   Partly Cloudy
12:53 PM 43.0 °F 37.7 °F 28.9 °F 58% 30.22 in 10.0 mi WSW 9.2 mph - N/A   Scattered Clouds
1:53 PM 44.1 °F 38.6 °F 28.9 °F 55% 30.24 in 10.0 mi WSW 10.4 mph - N/A   Scattered Clouds
2:53 PM 44.1 °F 39.0 °F 28.0 °F 53% 30.26 in 10.0 mi West 9.2 mph - N/A   Partly Cloudy
3:53 PM 37.9 °F 31.5 °F 28.0 °F 68% 30.30 in 10.0 mi WSW 9.2 mph - N/A   Scattered Clouds
4:53 PM 35.1 °F 30.1 °F 27.0 °F 72% 30.31 in 10.0 mi WSW 5.8 mph - N/A   Partly Cloudy
5:53 PM 35.1 °F 27.9 °F 28.0 °F 76% 30.32 in 10.0 mi SW 9.2 mph - N/A   Partly Cloudy
6:53 PM 33.1 °F 26.9 °F 27.0 °F 78% 30.34 in 10.0 mi SW 6.9 mph - N/A   Partly Cloudy
7:53 PM 35.1 °F 31.0 °F 27.0 °F 72% 30.35 in 10.0 mi SSW 4.6 mph - N/A   Partly Cloudy
8:53 PM 33.1 °F - 27.0 °F 78% 30.37 in 10.0 mi Calm Calm - N/A   Scattered Clouds
9:53 PM 33.1 °F 27.7 °F 27.0 °F 78% 30.37 in 10.0 mi SSE 5.8 mph - N/A   Mostly Cloudy
10:53 PM 32.0 °F 25.6 °F 27.0 °F 82% 30.38 in 10.0 mi SSE 6.9 mph - N/A   Mostly Cloudy
11:53 PM 30.9 °F 27.5 °F 27.0 °F 85% 30.37 in 10.0 mi Variable 3.5 mph - N/A   Partly Cloudy